Torna al catalogo

TSIKADA

AttivoNavigazionePO
NORAD 23463·PAYLOAD·🇷🇺 Russia

Lanciato Jan 24, 1995 da Plesetsk Cosmodrome

Loading…

Prossimi Passaggi (prossime 24 ore)

TLE

AggiornatoSource: Space-Track

Epoca: Sep 14, 2026, 10:09 UTC

1 23463U 95002A   26257.42335502  .00000042  00000-0  29262-4 0  9991
2 23463  82.9275 309.9294 0037594 250.8884 119.3024 13.72740336584555

Traccia TSIKADA in tempo reale con AllMySat

Download on the App Store